Location: Dumpton Point
(51.3500°N, 1.4433°E)
Time: 05:45:38
(UTC+00:00)

Altair - Pass Details

Date: 02 October 2022
Orbit: 1501 x 1682 km, 47.2° (Epoch: 04 December)

Event Time Altitude Azimuth Distance (km) Brightness Sun altitude
Rises 02:55:53 0° 176° (S) 4,748 - -27.7°
Exits shadow 02:56:55 - 173° (S) 4,513 9.7 -27.6°
Reaches altitude 10° 03:00:44 10° 155° (SSE) 3,806 9.5 -27.1°
Maximum altitude 03:05:34 15° 125° (SE) 3,458 9.6 -26.4°
Drops below altitude 10° 03:10:27 10° 94° (E) 3,885 10.3 -25.8°
Sets 03:15:28 0° 74° (ENE) 4,906 11.4 -25.1°
